Пальмино

Россия / Свердловская область     58°36′59″N   64°57′38″E
темп.,
°C
ветер,
м/с
пор.,
м/с
влажн.,
%
обл.,
%
осадки,
мм/ч
давл.,
гПа
погр.,
м
28 февраля, вс
вс2823:00−24юв389651 0.0 1022232
02:00−26вюв389720 0.0 1020192
05:00−24вюв379755 0.0 1019224
08:00−23в3896100 0.1 1018265
11:00−20в379497 0.1 1018276
14:00−17в3790100 0.0 1016346
17:00−18в3792100 0.0 1016398
20:00−19всв3996100 0.0 1016357
1 марта, пн
пн123:00−20всв2797100 0.1 1016251
02:00−23св239894 0.0 101667
05:00−24ссв239885 0.0 101772
08:00−25ссв239870 0.0 101775
11:00−19ссв239059 0.0 1018269
14:00−14ссв2287100 0.0 1017422
17:00−14с1293100 0.0 101786
20:00−20св1110094 0.0 101620
2 марта, вт
вт223:00−21ю1210076 0.0 101620
02:00−22ююз2210087 0.0 101520
05:00−22ю239976 0.0 101432
08:00−23ю239946 0.0 101265
11:00−16ю369347 0.0 1011311
14:00−12ю479092 0.0 1008516
17:00−11ю489196 0.1 1007589
20:00−14ююв41095100 0.0 1006404
3 марта, ср
ср323:00−14ю41094100 0.1 1005425
02:00−15ююв4995100 0.0 1004349
05:00−14ююв4995100 0.3 1003353
08:00−15ююв4895100 0.4 1001392
11:00−13ююв4794100 1.1 1001418
14:00−10ю4792100 0.5 1000619
17:00−8ю3794100 1.0 1000562
20:00−9ю2696100 0.4 999196
4 марта, чт
чт423:00−11ю239797 0.4 99946
02:00−13ююз229889 0.1 99821
05:00−13ю229792 0.1 99920
08:00−13ююз229795 0.0 99828
11:00−8юз249392 0.1 998275
14:00−4юз239098 0.0 998531
17:00−5зюз369499 0.3 998553
20:00−10зюз239594 0.1 99934